Torna al catalogo

STARLINK-4522

AttivoComunicazioniVLEO
NORAD 53388·PAYLOAD·🇺🇸 United States

Lanciato Aug 10, 2022 da Cape Canaveral Space Force Station

Loading…

Prossimi Passaggi (prossime 24 ore)

TLE

AggiornatoSource: CelesTrak SupGP

Epoca: Sep 15, 2026, 02:43 UTC

1 53388C 22097A   26258.11368056  .00050441  00000+0  14433-2 0  2588
2 53388  53.1604 347.5883 0000907  79.5415 306.5573 15.35371424    18

Traccia STARLINK-4522 in tempo reale con AllMySat

Download on the App Store